GW1975 Weather Reports


Display with metric or nautical units.
time (UTC)temp
F
wind
direction
speed
MPH
gust
MPH
rain 1hr
in
rain 24hr
in
rain mn
in
humidity
%
barometer
mb
20260831194235 96 256 6.0 6.0 0.00 0.00 0.00 38 1016.0
20260831193736 96 227 1.0 3.0 0.00 0.00 0.00 40 1016.0
20260831193235 96 231 5.0 5.0 0.00 0.00 0.00 39 1016.0
20260831192735 96 268 4.0 5.0 0.00 0.00 0.00 38 1016.0
20260831192235 96 232 6.0 7.0 0.00 0.00 0.00 40 1017.0
20260831191736 96 239 3.0 5.0 0.00 0.00 0.00 39 1017.0
20260831191236 96 249 4.0 5.0 0.00 0.00 0.00 39 1017.0
20260831190735 96 266 4.0 5.0 0.00 0.00 0.00 40 1017.0
20260831190235 95 237 3.0 4.0 0.00 0.00 0.00 40 1017.0
20260831185735 95 257 4.0 4.0 0.00 0.00 0.00 41 1017.0
20260831185235 95 245 5.0 5.0 0.00 0.00 0.00 42 1017.0
20260831184735 94 265 4.0 6.0 0.00 0.00 0.00 42 1017.0
20260831184235 94 267 5.0 6.0 0.00 0.00 0.00 41 1017.0
20260831183735 94 271 3.0 5.0 0.00 0.00 0.00 41 1017.0
20260831183236 94 252 4.0 4.0 0.00 0.00 0.00 42 1017.0
20260831182737 94 265 5.0 7.0 0.00 0.00 0.00 41 1017.0
20260831182236 94 266 4.0 6.0 0.00 0.00 0.00 43 1017.0
20260831181736 93 253 6.0 7.0 0.00 0.00 0.00 43 1017.0
20260831181236 93 266 3.0 5.0 0.00 0.00 0.00 43 1017.0
20260831180735 93 261 2.0 6.0 0.00 0.00 0.00 42 1017.0
20260831180235 93 262 2.0 4.0 0.00 0.00 0.00 43 1018.0
20260831175736 93 262 3.0 7.0 0.00 0.00 0.00 42 1018.0
20260831175236 93 257 4.0 5.0 0.00 0.00 0.00 43 1018.0
20260831174736 93 252 5.0 8.0 0.00 0.00 0.00 44 1018.0
20260831174236 92 249 3.0 5.0 0.00 0.00 0.00 43 1018.0
20260831173735 92 278 4.0 8.0 0.00 0.00 0.00 43 1018.0
20260831173235 92 243 3.0 8.0 0.00 0.00 0.00 43 1018.0
20260831172735 92 249 3.0 7.0 0.00 0.00 0.00 43 1018.0
20260831172236 92 238 3.0 7.0 0.00 0.00 0.00 43 1018.0
20260831171736 92 253 6.0 6.0 0.00 0.00 0.00 44 1018.0
20260831171235 92 240 4.0 6.0 0.00 0.00 0.00 43 1018.0
20260831170735 92 259 3.0 6.0 0.00 0.00 0.00 43 1018.0
20260831170236 92 247 5.0 8.0 0.00 0.00 0.00 43 1018.0
20260831165735 91 234 6.0 6.0 0.00 0.00 0.00 45 1018.0
20260831165235 91 239 4.0 6.0 0.00 0.00 0.00 45 1018.0
20260831164735 90 236 3.0 7.0 0.00 0.00 0.00 45 1018.0
20260831164236 90 238 2.0 5.0 0.00 0.00 0.00 46 1018.0
20260831163735 89 272 4.0 5.0 0.00 0.00 0.00 47 1019.0
20260831163236 89 235 3.0 6.0 0.00 0.00 0.00 47 1018.0
20260831162735 89 239 4.0 8.0 0.00 0.00 0.00 47 1019.0
20260831162236 89 268 4.0 7.0 0.00 0.00 0.00 47 1018.0
20260831161736 88 249 2.0 6.0 0.00 0.00 0.00 48 1018.0
20260831161236 88 252 6.0 6.0 0.00 0.00 0.00 47 1019.0
20260831160737 88 232 5.0 7.0 0.00 0.00 0.00 47 1019.0
20260831160235 88 258 3.0 4.0 0.00 0.00 0.00 48 1019.0
20260831155735 88 244 4.0 7.0 0.00 0.00 0.00 47 1019.0
20260831155235 87 221 4.0 6.0 0.00 0.00 0.00 48 1019.0
20260831154736 87 263 4.0 5.0 0.00 0.00 0.00 48 1019.0
20260831154235 87 233 4.0 7.0 0.00 0.00 0.00 49 1019.0
20260831153736 87 248 4.0 5.0 0.00 0.00 0.00 49 1019.0
20260831153236 87 234 3.0 6.0 0.00 0.00 0.00 49 1019.0
20260831152351 87 255 4.0 5.0 0.00 0.00 0.00 49 1019.0
20260831151735 87 251 3.0 5.0 0.00 0.00 0.00 49 1019.0
20260831151236 85 254 2.0 5.0 0.00 0.00 0.00 50 1019.0
20260831150735 86 226 5.0 7.0 0.00 0.00 0.00 50 1018.0
20260831150237 86 261 3.0 5.0 0.00 0.00 0.00 50 1018.0
20260831145737 86 247 3.0 3.0 0.00 0.00 0.00 51 1018.0
20260831145236 86 238 1.0 4.0 0.00 0.00 0.00 52 1018.0
20260831144736 85 245 4.0 4.0 0.00 0.00 0.00 52 1018.0
20260831144239 86 246 3.0 6.0 0.00 0.00 0.00 50 1018.0
20260831143736 86 238 3.0 5.0 0.00 0.00 0.00 51 1018.0
20260831143235 87 244 5.0 5.0 0.00 0.00 0.00 50 1018.0
20260831142735 85 168 2.0 3.0 0.00 0.00 0.00 52 1018.0
20260831142236 85 259 2.0 4.0 0.00 0.00 0.00 51 1018.0
20260831141735 85 217 0.0 3.0 0.00 0.00 0.00 52 1018.0
20260831141235 85 235 3.0 3.0 0.00 0.00 0.00 52 1018.0
20260831140736 84 232 2.0 3.0 0.00 0.00 0.00 53 1018.0
20260831140236 84 258 2.0 3.0 0.00 0.00 0.00 53 1018.0
20260831135735 83 232 2.0 2.0 0.00 0.00 0.00 54 1018.0
20260831135235 83 226 2.0 3.0 0.00 0.00 0.00 53 1018.0
20260831134736 82 186 0.0 2.0 0.00 0.00 0.00 54 1018.0
20260831134235 82 242 1.0 2.0 0.00 0.00 0.00 54 1018.0
20260831133736 82 232 2.0 2.0 0.00 0.00 0.00 55 1018.0
20260831133235 81 190 0.0 2.0 0.00 0.00 0.00 55 1018.0
20260831132736 81 228 2.0 2.0 0.00 0.00 0.00 55 1018.0
20260831132236 80 235 2.0 3.0 0.00 0.00 0.00 57 1018.0
20260831131737 80 244 2.0 2.0 0.00 0.00 0.00 58 1018.0
20260831131235 79 262 1.0 2.0 0.00 0.00 0.00 60 1018.0
20260831130736 78 168 1.0 2.0 0.00 0.00 0.00 62 1018.0
20260831130236 77 233 1.0 2.0 0.00 0.00 0.00 64 1018.0
20260831125735 75 223 2.0 2.0 0.00 0.00 0.00 66 1018.0
20260831125235 75 153 0.0 2.0 0.00 0.00 0.00 67 1018.0
20260831124735 74 213 2.0 2.0 0.00 0.00 0.00 67 1018.0
20260831124235 74 189 2.0 2.0 0.00 0.00 0.00 69 1018.0
20260831123736 73 212 0.0 2.0 0.00 0.00 0.00 69 1018.0
20260831123235 73 219 2.0 2.0 0.00 0.00 0.00 69 1018.0
20260831122736 72 200 1.0 2.0 0.00 0.00 0.00 69 1018.0
20260831122236 72 236 1.0 1.0 0.00 0.00 0.00 69 1018.0
20260831121736 72 241 1.0 2.0 0.00 0.00 0.00 69 1018.0
20260831121236 72 252 1.0 2.0 0.00 0.00 0.00 69 1018.0
20260831120736 72 239 1.0 2.0 0.00 0.00 0.00 69 1017.0
20260831120238 73 237 1.0 2.0 0.00 0.00 0.00 68 1017.0
20260831115736 73 269 1.0 2.0 0.00 0.00 0.00 67 1017.0
20260831115235 73 151 1.0 2.0 0.00 0.00 0.00 67 1018.0
20260831114735 73 188 0.0 2.0 0.00 0.00 0.00 67 1017.0
20260831114235 73 226 1.0 2.0 0.00 0.00 0.00 67 1017.0
20260831113735 73 205 0.0 2.0 0.00 0.00 0.00 67 1017.0
20260831113235 73 233 0.0 2.0 0.00 0.00 0.00 67 1017.0
20260831112737 73 224 1.0 2.0 0.00 0.00 0.00 67 1017.0
20260831112235 73 201 1.0 2.0 0.00 0.00 0.00 67 1017.0
20260831111736 73 175 2.0 3.0 0.00 0.00 0.00 68 1017.0
20260831111235 73 201 1.0 3.0 0.00 0.00 0.00 67 1017.0
20260831110735 73 168 2.0 3.0 0.00 0.00 0.00 67 1017.0
20260831110236 73 170 2.0 2.0 0.00 0.00 0.00 67 1017.0
20260831105735 73 168 2.0 2.0 0.00 0.00 0.00 67 1017.0
20260831105245 73 195 2.0 2.0 0.00 0.00 0.00 67 1017.0
20260831104736 73 187 2.0 2.0 0.00 0.00 0.00 66 1017.0
20260831104236 73 205 1.0 2.0 0.00 0.00 0.00 66 1017.0
20260831103736 73 206 1.0 2.0 0.00 0.00 0.00 67 1017.0
20260831103235 73 201 1.0 2.0 0.00 0.00 0.00 67 1017.0
20260831102736 73 224 1.0 2.0 0.00 0.00 0.00 68 1017.0
20260831102236 73 239 0.0 2.0 0.00 0.00 0.00 68 1017.0
20260831101736 73 170 2.0 2.0 0.00 0.00 0.00 66 1017.0
20260831101235 73 207 1.0 2.0 0.00 0.00 0.00 67 1017.0
20260831100735 73 194 0.0 2.0 0.00 0.00 0.00 67 1017.0
20260831100235 73 214 1.0 2.0 0.00 0.00 0.00 67 1017.0
20260831095735 73 207 1.0 2.0 0.00 0.00 0.00 66 1017.0
20260831095235 73 205 1.0 2.0 0.00 0.00 0.00 66 1017.0
20260831094735 73 186 1.0 2.0 0.00 0.00 0.00 66 1017.0
20260831094235 73 220 1.0 2.0 0.00 0.00 0.00 66 1017.0
20260831093735 73 172 1.0 2.0 0.00 0.00 0.00 66 1017.0
20260831093235 74 194 1.0 2.0 0.00 0.00 0.00 65 1017.0
20260831092735 74 214 1.0 2.0 0.00 0.00 0.00 64 1017.0
20260831092236 74 196 1.0 2.0 0.00 0.00 0.00 63 1017.0
20260831091735 74 224 1.0 2.0 0.00 0.00 0.00 63 1017.0
20260831091235 74 228 1.0 2.0 0.00 0.00 0.00 63 1017.0
20260831090735 75 222 1.0 2.0 0.00 0.00 0.00 62 1017.0
20260831090235 75 203 1.0 2.0 0.00 0.00 0.00 62 1017.0
20260831085735 75 214 2.0 2.0 0.00 0.00 0.00 61 1017.0
20260831085235 75 217 1.0 2.0 0.00 0.00 0.00 61 1016.0
20260831084735 75 229 0.0 2.0 0.00 0.00 0.00 61 1017.0
20260831084235 75 172 1.0 2.0 0.00 0.00 0.00 60 1017.0
20260831083735 75 221 1.0 2.0 0.00 0.00 0.00 60 1017.0
20260831083236 75 230 1.0 2.0 0.00 0.00 0.00 60 1016.0
20260831082736 75 220 1.0 2.0 0.00 0.00 0.00 60 1016.0
20260831082235 75 232 1.0 2.0 0.00 0.00 0.00 60 1016.0
20260831081735 75 198 1.0 2.0 0.00 0.00 0.00 60 1016.0
20260831081236 75 202 1.0 1.0 0.00 0.00 0.00 60 1016.0
20260831080745 75 198 0.0 2.0 0.00 0.00 0.00 61 1016.0
20260831080239 74 219 1.0 2.0 0.00 0.00 0.00 62 1016.0
20260831075735 74 237 0.0 2.0 0.00 0.00 0.00 63 1016.0
20260831075236 74 251 1.0 2.0 0.00 0.00 0.00 64 1016.0
20260831074735 74 241 0.0 2.0 0.00 0.00 0.00 64 1016.0
20260831074235 74 205 0.0 2.0 0.00 0.00 0.00 64 1016.0
20260831073736 74 232 1.0 1.0 0.00 0.00 0.00 63 1016.0
20260831073235 74 226 0.0 1.0 0.00 0.00 0.00 63 1017.0
20260831072736 74 235 0.0 1.0 0.00 0.00 0.00 63 1016.0
20260831072235 75 235 0.0 2.0 0.00 0.00 0.00 64 1017.0
20260831071735 75 264 1.0 2.0 0.00 0.00 0.00 62 1017.0
20260831071235 75 256 1.0 1.0 0.00 0.00 0.00 62 1016.0
20260831070735 75 241 0.0 1.0 0.00 0.00 0.00 62 1017.0
20260831070236 75 265 0.0 2.0 0.00 0.00 0.00 61 1016.0
20260831065735 76 249 1.0 2.0 0.00 0.00 0.00 61 1017.0
20260831065236 76 246 1.0 2.0 0.00 0.00 0.00 62 1017.0
20260831064736 76 212 1.0 2.0 0.00 0.00 0.00 61 1017.0
20260831064236 76 236 1.0 2.0 0.00 0.00 0.00 62 1017.0
20260831063735 76 229 1.0 1.0 0.00 0.00 0.00 62 1017.0
20260831063235 76 228 1.0 2.0 0.00 0.00 0.00 62 1017.0
20260831062736 76 201 1.0 2.0 0.00 0.00 0.00 62 1017.0
20260831062236 76 219 0.0 2.0 0.00 0.00 0.00 62 1017.0
20260831061736 76 229 1.0 2.0 0.00 0.00 0.00 63 1017.0
20260831061235 76 227 2.0 2.0 0.00 0.00 0.00 63 1017.0
20260831060735 76 168 1.0 2.0 0.00 0.00 0.00 63 1017.0
20260831060235 76 225 1.0 2.0 0.00 0.00 0.00 63 1017.0
20260831055736 76 227 2.0 2.0 0.00 0.00 0.00 63 1017.0
20260831055235 76 219 0.0 1.0 0.00 0.00 0.00 64 1017.0
20260831054735 76 224 0.0 2.0 0.00 0.00 0.00 64 1017.0
20260831054237 76 225 1.0 2.0 0.00 0.00 0.00 63 1017.0
20260831053735 76 229 1.0 2.0 0.00 0.00 0.00 64 1017.0
20260831053237 76 248 1.0 2.0 0.00 0.00 0.00 64 1017.0
20260831052739 77 237 1.0 2.0 0.00 0.00 0.00 64 1017.0
20260831052235 77 232 2.0 2.0 0.00 0.00 0.00 64 1017.0
20260831051736 77 245 0.0 2.0 0.00 0.00 0.00 64 1017.0
20260831051238 77 208 1.0 2.0 0.00 0.00 0.00 64 1017.0
20260831050735 77 246 1.0 2.0 0.00 0.00 0.00 64 1017.0
20260831050235 77 229 2.0 2.0 0.00 0.00 0.00 64 1017.0
20260831045735 77 244 2.0 2.0 0.00 0.00 0.00 63 1017.0
20260831045235 77 211 1.0 2.0 0.00 0.00 0.00 63 1017.0
20260831044736 77 234 1.0 2.0 0.00 0.00 0.00 63 1017.0
20260831044235 78 238 1.0 2.0 0.00 0.00 0.00 63 1017.0
20260831043735 78 228 1.0 2.0 0.00 0.00 0.00 63 1017.0
20260831043236 78 243 1.0 2.0 0.00 0.00 0.00 62 1017.0
20260831042735 78 245 1.0 2.0 0.00 0.00 0.00 62 1017.0
20260831042235 78 228 1.0 2.0 0.00 0.00 0.00 62 1017.0
20260831041735 78 217 2.0 2.0 0.00 0.00 0.00 62 1017.0
20260831041236 78 224 1.0 2.0 0.00 0.00 0.00 62 1016.0
20260831040735 78 226 2.0 2.0 0.00 0.00 0.00 62 1017.0
20260831040235 79 236 1.0 2.0 0.00 0.00 0.00 62 1017.0
20260831035735 79 254 1.0 2.0 0.00 0.00 0.00 61 1017.0
20260831035235 79 222 1.0 2.0 0.00 0.00 0.00 61 1017.0
20260831034736 79 232 0.0 2.0 0.00 0.00 0.00 61 1017.0
20260831034235 79 231 1.0 2.0 0.00 0.00 0.00 61 1017.0
20260831033736 79 226 1.0 2.0 0.00 0.00 0.00 61 1017.0
20260831033235 79 229 2.0 2.0 0.00 0.00 0.00 61 1017.0
20260831032737 79 249 1.0 2.0 0.00 0.00 0.00 61 1017.0
20260831032235 80 262 1.0 2.0 0.00 0.00 0.00 60 1017.0
20260831031735 80 274 1.0 2.0 0.00 0.00 0.00 60 1016.0
20260831031236 80 233 1.0 2.0 0.00 0.00 0.00 59 1017.0
20260831030739 80 240 0.0 2.0 0.00 0.00 0.00 59 1017.0
20260831030236 80 243 2.0 2.0 0.00 0.00 0.00 59 1016.0
20260831025737 81 264 1.0 2.0 0.00 0.00 0.00 58 1016.0
20260831025236 81 244 2.0 2.0 0.00 0.00 0.00 58 1016.0
20260831024735 81 264 1.0 2.0 0.00 0.00 0.00 57 1017.0
20260831024235 81 253 1.0 2.0 0.00 0.00 0.00 57 1016.0
20260831023735 82 249 1.0 2.0 0.00 0.00 0.00 56 1017.0
20260831023235 82 225 0.0 2.0 0.00 0.00 0.00 56 1016.0
20260831022736 82 256 2.0 2.0 0.00 0.00 0.00 56 1017.0
20260831022241 82 215 2.0 2.0 0.00 0.00 0.00 56 1016.0
20260831021736 82 234 2.0 2.0 0.00 0.00 0.00 55 1016.0
20260831021235 82 211 2.0 2.0 0.00 0.00 0.00 55 1016.0
20260831020735 82 234 1.0 3.0 0.00 0.00 0.00 55 1016.0
20260831020237 82 236 1.0 2.0 0.00 0.00 0.00 55 1016.0
20260831015736 83 215 2.0 2.0 0.00 0.00 0.00 55 1016.0
20260831015236 83 246 1.0 2.0 0.00 0.00 0.00 55 1016.0
20260831014737 83 232 2.0 3.0 0.00 0.00 0.00 54 1016.0
20260831014235 83 218 1.0 3.0 0.00 0.00 0.00 54 1016.0
20260831013735 84 209 2.0 2.0 0.00 0.00 0.00 54 1016.0
20260831013235 84 227 2.0 3.0 0.00 0.00 0.00 53 1016.0
20260831012736 84 230 2.0 2.0 0.00 0.00 0.00 53 1016.0
20260831012235 84 219 2.0 2.0 0.00 0.00 0.00 52 1016.0
20260831011738 84 201 0.0 2.0 0.00 0.00 0.00 51 1016.0
20260831011235 85 223 2.0 2.0 0.00 0.00 0.00 51 1016.0
20260831010736 85 239 0.0 2.0 0.00 0.00 0.00 51 1016.0
20260831010236 85 200 1.0 2.0 0.00 0.00 0.00 50 1016.0
20260831005735 86 210 2.0 2.0 0.00 0.00 0.00 50 1016.0
20260831005237 86 227 0.0 3.0 0.00 0.00 0.00 49 1016.0
20260831004735 86 117 0.0 2.0 0.00 0.00 0.00 49 1016.0
20260831004236 87 225 2.0 2.0 0.00 0.00 0.00 48 1016.0
20260831003735 87 220 2.0 2.0 0.00 0.00 0.00 48 1016.0
20260831003235 87 198 2.0 2.0 0.00 0.00 0.00 47 1016.0
20260831002735 87 255 0.0 2.0 0.00 0.00 0.00 46 1016.0
20260831002235 88 228 1.0 4.0 0.00 0.00 0.00 46 1016.0
20260831001736 88 211 2.0 2.0 0.00 0.00 0.00 45 1016.0
20260831001235 89 205 2.0 3.0 0.00 0.00 0.00 45 1016.0
20260831000735 89 194 2.0 3.0 0.00 0.00 0.00 44 1016.0
20260831000235 89 218 2.0 2.0 0.00 0.00 0.00 44 1016.0
20260830235735 89 207 2.0 3.0 0.00 0.00 0.00 43 1016.0
20260830235235 90 223 2.0 4.0 0.00 0.00 0.00 42 1016.0
20260830234735 90 197 2.0 5.0 0.00 0.00 0.00 41 1016.0
20260830234235 91 242 2.0 3.0 0.00 0.00 0.00 40 1016.0
20260830233736 91 186 2.0 2.0 0.00 0.00 0.00 40 1016.0
20260830233235 91 175 0.0 3.0 0.00 0.00 0.00 39 1016.0
20260830232735 92 225 2.0 3.0 0.00 0.00 0.00 38 1016.0
20260830232235 91 162 1.0 5.0 0.00 0.00 0.00 38 1016.0
20260830231735 92 161 2.0 4.0 0.00 0.00 0.00 37 1016.0
20260830231235 92 198 2.0 3.0 0.00 0.00 0.00 37 1016.0
20260830230736 92 189 2.0 3.0 0.00 0.00 0.00 38 1016.0
20260830230235 93 175 2.0 6.0 0.00 0.00 0.00 37 1016.0
20260830225735 93 100 3.0 3.0 0.00 0.00 0.00 37 1016.0
20260830225237 93 200 2.0 4.0 0.00 0.00 0.00 37 1016.0
20260830224735 93 226 2.0 3.0 0.00 0.00 0.00 37 1016.0
20260830224235 93 129 2.0 4.0 0.00 0.00 0.00 37 1016.0
20260830223735 94 185 2.0 3.0 0.00 0.00 0.00 36 1016.0
20260830223235 94 200 2.0 3.0 0.00 0.00 0.00 36 1016.0
20260830222735 94 208 2.0 3.0 0.00 0.00 0.00 36 1016.0
20260830222236 93 235 2.0 2.0 0.00 0.00 0.00 35 1016.0
20260830221735 94 209 2.0 3.0 0.00 0.00 0.00 35 1016.0
20260830221235 94 214 1.0 3.0 0.00 0.00 0.00 34 1016.0
20260830220735 94 222 2.0 3.0 0.00 0.00 0.00 33 1016.0
20260830220235 95 196 2.0 5.0 0.00 0.00 0.00 32 1016.0
20260830215735 95 177 1.0 4.0 0.00 0.00 0.00 33 1016.0
20260830215235 95 260 1.0 3.0 0.00 0.00 0.00 33 1016.0
20260830214735 95 202 2.0 3.0 0.00 0.00 0.00 33 1016.0
20260830214235 95 233 1.0 3.0 0.00 0.00 0.00 33 1016.0
20260830213736 95 221 2.0 3.0 0.00 0.00 0.00 32 1016.0
20260830213236 94 165 1.0 3.0 0.00 0.00 0.00 33 1016.0
20260830212738 94 183 2.0 4.0 0.00 0.00 0.00 33 1016.0
20260830212235 95 117 3.0 6.0 0.00 0.00 0.00 32 1016.0
20260830211735 95 245 0.0 4.0 0.00 0.00 0.00 34 1016.0
20260830211235 94 191 2.0 4.0 0.00 0.00 0.00 33 1016.0
20260830210735 94 230 1.0 3.0 0.00 0.00 0.00 33 1016.0
20260830210236 94 152 2.0 3.0 0.00 0.00 0.00 32 1016.0
20260830205735 94 234 4.0 4.0 0.00 0.00 0.00 32 1016.0
20260830205235 94 191 0.0 4.0 0.00 0.00 0.00 33 1016.0
20260830204735 94 218 2.0 3.0 0.00 0.00 0.00 32 1016.0
20260830204236 94 160 2.0 4.0 0.00 0.00 0.00 32 1016.0
20260830203737 94 160 2.0 3.0 0.00 0.00 0.00 34 1016.0
20260830203235 94 233 2.0 3.0 0.00 0.00 0.00 32 1016.0
20260830202735 95 222 2.0 4.0 0.00 0.00 0.00 32 1016.0
20260830202235 94 228 1.0 4.0 0.00 0.00 0.00 33 1016.0
20260830201735 94 187 2.0 3.0 0.00 0.00 0.00 33 1016.0
20260830201235 94 206 1.0 3.0 0.00 0.00 0.00 33 1016.0
20260830200735 94 252 2.0 3.0 0.00 0.00 0.00 32 1016.0
20260830200235 94 191 2.0 4.0 0.00 0.00 0.00 33 1016.0
20260830195735 94 191 2.0 4.0 0.00 0.00 0.00 33 1017.0
20260830195236 94 200 1.0 5.0 0.00 0.00 0.00 34 1016.0
20260830194737 94 183 1.0 3.0 0.00 0.00 0.00 34 1017.0